Regional Weather Roundup
Issued by NWS Little Rock, AR

Home | Current Version | Previous Version | Graphics & Text | Print | Product List | Glossary On
Versions: 1 2 3 4 5 6 7 8 9 10 11 12 13 14 15 16 17 18 19 20 21 22 23 24 25 26 27 28 29 30 31 32 33 34 35 36 37 38 39 40 41 42 43 44 45 46 47 48 49 50
000
ASUS44 KLZK 220105
RWRLZK

WEATHER ROUNDUP FOR ARKANSAS
NATIONAL WEATHER SERVICE LITTLE ROCK AR
700 PM CST SAT JAN 21 2017

NOTE: "FAIR" INDICATES FEW OR NO CLOUDS BELOW 12,000 FEET WITH NO
SIGNIFICANT WEATHER AND/OR OBSTRUCTIONS TO VISIBILITY.

ARZ001-003-010-029-220200-
NORTHWEST ARKANSAS

CITY           SKY/WX    TMP DP  RH WIND       PRES   REMARKS
FAYETTEVILLE   CLOUDY    52  50  93 CALM      29.44F
FORT SMITH     MOCLDY    57  51  80 NE3       29.42S
HARRISON       MOCLDY    58  44  60 S6        29.52R THUNDER
BENTONVILLE    CLOUDY   N/A N/A N/A E7        29.45F
ROGERS         CLOUDY    53  50  89 E10       29.46F
SILOAM SPGS    CLOUDY    55  46  71 E7        29.43F
HIGHFILL       CLOUDY    54  50  86 E8        29.44F
SPRINGDALE     CLOUDY    54  52  94 E6        29.47F
$$

ARZ004-005-016-220200-
NORTH CENTRAL ARKANSAS

CITY           SKY/WX    TMP DP  RH WIND       PRES   REMARKS
BATESVILLE     CLOUDY    61  55  82 E7        29.52S
FLIPPIN        CLOUDY    61  45  55 CALM      29.47S
MTN HOME       CLOUDY    60  49  66 SE5       29.49S
$$

ARZ040-041-220200-
WEST CENTRAL ARKANSAS

CITY           SKY/WX    TMP DP  RH WIND       PRES   REMARKS
MENA           NOT AVBL
MOUNT IDA      PTCLDY    59  57  93 CALM      29.42S
$$

ARZ009-017-025-026-028-220200-
NORTHEAST ARKANSAS

CITY           SKY/WX    TMP DP  RH WIND       PRES   REMARKS
JONESBORO      CLOUDY    60  54  80 E5        29.52F
NEWPORT        CLOUDY    59  57  93 SE8       29.53R
WALNUT RIDGE   CLOUDY    59  54  82 SE5       29.53S
BLYTHEVILLE    CLOUDY    59  56  89 E6        29.55F
$$

ARZ022-023-033-042-044-220200-
CENTRAL ARKANSAS

CITY           SKY/WX    TMP DP  RH WIND       PRES   REMARKS
LITTLE ROCK    CLOUDY    59  58  96 N6        29.49F
N LITTLE ROCK    N/A     61  57  87 E5        29.50F
JACKSONVILLE   CLOUDY    62  58  88 NE5       29.49F
SEARCY         CLOUDY    62  59  90 SE6       29.53R
HOT SPRINGS    PTCLDY    61  60  97 E8        29.45F
RUSSELLVILLE   TSTM      62  57  83 E5        29.47S
$$

ARZ036-220200-
EAST ARKANSAS

CITY           SKY/WX    TMP DP  RH WIND       PRES   REMARKS
WEST MEMPHIS   MOCLDY    59  54  83 SE7       29.53R
$$

ARZ050-053-066-070-073-220200-
SOUTHWEST ARKANSAS

CITY           SKY/WX    TMP DP  RH WIND       PRES   REMARKS
ARKADELPHIA    LGT RAIN  63  61  94 N5        29.44S
CAMDEN         RAIN      63  57  82 NE5       29.43R
TEXARKANA      TSTM      60  58  92 S8        29.41R
EL DORADO      TSTM      63  61  93 N13       29.40F FOG
DE QUEEN       CLOUDY    58  58 100 CALM      29.40R THUNDER
$$

ARZ056-057-069-220200-
SOUTHEAST ARKANSAS

CITY           SKY/WX    TMP DP  RH WIND       PRES   REMARKS
PINE BLUFF     CLOUDY    63  58  83 E8        29.46F
STUTTGART      CLOUDY    64  54  68 E8        29.50F VSB 1/2
MONTICELLO     CLOUDY    64  57  78 E6        29.44F

$$





USA.gov is the U.S. government's official web portal to all federal, state and local government web resources and services.